Boone, NC

5:25 AM EDT on October 19, 2017 (GMT -0400)
Boone

Weather History for KTNB - March, 2013

Change the Weather History Date:

Wednesday, March 20, 2013

  Actual Average (KGEV) Record (KGEV)
Temperature  
Mean Temperature 37 °F -  
Max Temperature 46 °F 55 °F 77 °F (1968)
Min Temperature 27 °F 32 °F 16 °F (1981)
Degree Days  
Heating Degree Days 28    
Moisture  
Dew Point 7 °F    
Average Humidity 33    
Maximum Humidity 99    
Minimum Humidity 15    
Precipitation  
Precipitation 0.00 in - - ()
Sea Level Pressure  
Sea Level Pressure 29.93 in    
Wind  
Wind Speed 10 mph (WNW)    
Max Wind Speed 25 mph    
Max Gust Speed 44 mph    
Visibility 9 miles    
Events Snow    
Averages and records for this station are not official NWS values.
T = Trace of Precipitation, MM = Missing Value Source: NWS Daily Summary

Daily Weather History Graph

Daily Weather History Graph

Search for Another Location

Airport or City:

Trip Planner

Search our weather history database for the weather conditions in past years. The results will help you decide how hot, cold, wet, or windy it might be!

Date:

Astronomy

Mar. 20, 2013 Rise Set
Actual Time 7:29 AM EDT 7:38 PM EDT
Civil Twilight 7:04 AM EDT 8:04 PM EDT
Nautical Twilight 6:34 AM EDT 8:34 PM EDT
Astronomical Twilight 6:04 AM EDT 9:04 PM EDT
Moon 1:22 PM EDT (3/20) 2:59 AM EDT (3/20)
Length of Visible Light 13h 00m
Length of Day
12h 08m
First Quarter, 59% of the Moon is Illuminated
Mar 20
First Quarter
Mar 27
Full
Apr 3
Last Quarter
Apr 10
New
Apr 18
First Quarter

Hourly Weather History & Observations

Time (EDT) Temp. Windchill Dew Point Humidity Pressure Visibility Wind Dir Wind Speed Gust Speed Precip Events Conditions
12:15 AM 35.2 °F 30.3 °F 5.9 °F 29% 30.03 in 10.0 mi West 5.8 mph - N/A   Clear
12:35 AM 34.3 °F 27.7 °F 6.6 °F 31% 30.03 in 10.0 mi WNW 8.1 mph - N/A   Clear
12:55 AM 34.2 °F 26.2 °F 3.7 °F 28% 30.03 in 10.0 mi WNW 10.4 mph - N/A   Clear
1:15 AM 34.3 °F 27.7 °F -1.8 °F 21% 30.03 in 10.0 mi NW 8.1 mph - N/A   Clear
1:35 AM 34.0 °F 28.8 °F -2.2 °F 21% 30.03 in 10.0 mi NW 5.8 mph - N/A   Clear
1:55 AM 32.5 °F 27.1 °F 1.2 °F 26% 30.02 in 10.0 mi WNW 5.8 mph - N/A   Clear
2:15 AM 32.0 °F 26.4 °F 1.2 °F 27% 30.02 in 10.0 mi NW 5.8 mph - N/A   Clear
2:35 AM 32.2 °F 25.8 °F 0.9 °F 26% 30.02 in 10.0 mi WNW 6.9 mph - N/A   Clear
2:55 AM 32.0 °F 25.6 °F 0.5 °F 26% 30.01 in 10.0 mi NW 6.9 mph - N/A   Clear
3:15 AM 32.0 °F 23.6 °F 1.2 °F 27% 30.01 in 10.0 mi NW 10.4 mph - N/A   Clear
3:35 AM 31.8 °F 25.4 °F 3.0 °F 30% 30.00 in 10.0 mi WNW 6.9 mph - N/A   Clear
3:55 AM 30.9 °F 25.2 °F 4.5 °F 33% 30.00 in 10.0 mi WNW 5.8 mph - N/A   Clear
4:15 AM 30.6 °F 24.7 °F 4.6 °F 33% 29.99 in 10.0 mi WNW 5.8 mph - N/A   Clear
4:35 AM 31.1 °F 24.5 °F 3.7 °F 31% 29.99 in 10.0 mi WNW 6.9 mph - N/A   Unknown
4:55 AM 30.7 °F 22.6 °F 3.9 °F 32% 29.98 in 10.0 mi WNW 9.2 mph - N/A   Clear
5:15 AM 30.9 °F 22.2 °F 2.8 °F 30% 29.98 in 10.0 mi NW 10.4 mph - N/A   Clear
5:35 AM 30.9 °F 22.8 °F 2.7 °F 30% 29.98 in 10.0 mi NNW 9.2 mph 16.1 mph N/A   Clear
5:55 AM 30.6 °F 22.4 °F 2.8 °F 31% 29.98 in 10.0 mi NW 9.2 mph - N/A   Unknown
6:15 AM 30.2 °F 24.3 °F 3.0 °F 32% 29.98 in 10.0 mi NW 5.8 mph - N/A   Clear
6:35 AM 30.0 °F 23.2 °F 3.2 °F 32% 29.98 in 10.0 mi WNW 6.9 mph - N/A   Clear
6:55 AM 29.8 °F 22.2 °F 3.7 °F 33% 29.99 in 10.0 mi NW 8.1 mph - N/A   Clear
7:15 AM 29.3 °F 22.3 °F 4.5 °F 35% 30.00 in 10.0 mi West 6.9 mph - N/A   Clear
7:35 AM 29.1 °F 25.4 °F 4.6 °F 35% 30.00 in 10.0 mi West 3.5 mph - N/A   Clear
8:15 AM 28.9 °F 20.4 °F 6.4 °F 39% 30.02 in 10.0 mi West 9.2 mph - N/A   Clear
8:35 AM 30.2 °F 20.8 °F 4.8 °F 34% 30.03 in 10.0 mi West 11.5 mph - N/A   Clear
8:55 AM 30.6 °F 21.2 °F 5.0 °F 34% 30.02 in 10.0 mi WNW 11.5 mph - N/A   Clear
9:15 AM 31.6 °F 22.6 °F 5.7 °F 34% 30.03 in 10.0 mi West 11.5 mph 17.3 mph N/A   Clear
9:35 AM 32.2 °F 23.2 °F 5.9 °F 33% 30.03 in 10.0 mi WNW 11.5 mph 17.3 mph N/A   Clear
9:55 AM 32.0 °F 22.5 °F 4.3 °F 31% 30.03 in 10.0 mi NW 12.7 mph 18.4 mph N/A   Clear
10:15 AM 34.2 °F 26.2 °F 3.2 °F 27% 30.03 in 10.0 mi West 10.4 mph 17.3 mph N/A   Clear
10:35 AM 34.9 °F 27.1 °F 3.9 °F 27% 30.03 in 10.0 mi NW 10.4 mph 19.6 mph N/A   Clear
10:55 AM 36.7 °F 29.9 °F 5.0 °F 27% 30.02 in 10.0 mi West 9.2 mph - N/A   Clear
11:15 AM 37.6 °F 31.0 °F 5.5 °F 26% 30.02 in 10.0 mi West 9.2 mph - N/A   Clear
11:35 AM 39.2 °F 31.2 °F 6.1 °F 25% 30.02 in 10.0 mi West 13.8 mph 20.7 mph N/A   Clear
11:55 AM 39.7 °F 31.5 °F 6.3 °F 25% 30.01 in 10.0 mi WNW 15.0 mph 20.7 mph N/A   Clear
12:15 PM 39.9 °F 33.9 °F 5.9 °F 24% 30.00 in 10.0 mi NW 9.2 mph 18.4 mph N/A   Clear
12:35 PM 41.0 °F 32.2 °F 5.7 °F 23% 29.99 in 10.0 mi WNW 18.4 mph 25.3 mph N/A   Clear
12:55 PM 41.9 °F 33.7 °F 5.5 °F 22% 29.98 in 10.0 mi WNW 17.3 mph 27.6 mph N/A   Clear
1:15 PM 42.3 °F 35.1 °F 5.0 °F 21% 29.95 in 10.0 mi West 13.8 mph 21.9 mph N/A   Clear
1:35 PM 42.8 °F 36.2 °F 5.7 °F 22% 29.94 in 10.0 mi NW 12.7 mph 21.9 mph N/A   Clear
1:55 PM 43.3 °F 36.8 °F 2.8 °F 19% 29.93 in 10.0 mi NW 12.7 mph 25.3 mph N/A   Clear
2:35 PM 45.1 °F 37.3 °F -0.4 °F 15% 29.90 in 10.0 mi West 19.6 mph 25.3 mph N/A   Clear
2:55 PM 45.0 °F 37.6 °F 1.8 °F 17% 29.88 in 10.0 mi NW 17.3 mph 27.6 mph N/A   Clear
3:15 PM 45.0 °F 37.4 °F 0.3 °F 16% 29.87 in 10.0 mi West 18.4 mph 21.9 mph N/A   Clear
3:35 PM 46.0 °F 39.0 °F -0.0 °F 15% 29.86 in 10.0 mi WNW 17.3 mph 26.5 mph N/A   Clear
3:55 PM 44.6 °F 37.8 °F 3.9 °F 19% 29.85 in 10.0 mi NW 15.0 mph 31.1 mph N/A   Clear
4:15 PM 44.1 °F 36.8 °F 3.7 °F 19% 29.85 in 10.0 mi WNW 16.1 mph 25.3 mph N/A   Clear
4:35 PM 43.7 °F 36.3 °F 3.4 °F 19% 29.84 in 10.0 mi WNW 16.1 mph 27.6 mph N/A   Clear
4:55 PM 44.4 °F 37.5 °F 4.1 °F 19% 29.83 in 10.0 mi WNW 15.0 mph 33.4 mph N/A   Clear
5:15 PM 43.7 °F 35.7 °F 4.3 °F 20% 29.83 in 10.0 mi West 18.4 mph 25.3 mph N/A   Clear
5:35 PM 43.2 °F 36.2 °F 3.0 °F 19% 29.82 in 10.0 mi NW 13.8 mph 26.5 mph N/A   Clear
5:55 PM 43.2 °F 35.6 °F 4.8 °F 21% 29.81 in 10.0 mi WNW 16.1 mph 23.0 mph N/A   Clear
6:15 PM 42.4 °F 33.8 °F 3.9 °F 20% 29.80 in 10.0 mi WNW 19.6 mph 28.8 mph N/A   Clear
6:35 PM 42.3 °F 34.4 °F 4.5 °F 21% 29.80 in 10.0 mi WNW 16.1 mph 24.2 mph N/A   Clear
6:55 PM 41.5 °F 34.2 °F 4.8 °F 22% 29.80 in 10.0 mi WNW 13.8 mph 20.7 mph N/A   Clear
7:15 PM 40.6 °F 33.0 °F 5.7 °F 24% 29.80 in 10.0 mi WNW 13.8 mph 18.4 mph N/A   Clear
7:35 PM 39.6 °F 31.3 °F 6.3 °F 25% 29.80 in 10.0 mi WNW 15.0 mph 24.2 mph N/A   Clear
7:55 PM 38.8 °F 33.2 °F 6.8 °F 27% 29.80 in 10.0 mi WNW 8.1 mph - N/A   Clear
8:15 PM 38.3 °F 30.9 °F 7.7 °F 28% 29.80 in 10.0 mi WNW 11.5 mph - N/A   Clear
8:35 PM 37.8 °F 29.4 °F 8.4 °F 30% 29.80 in 10.0 mi WNW 13.8 mph 18.4 mph N/A   Clear
8:55 PM 37.4 °F 27.8 °F 9.9 °F 32% 29.79 in 10.0 mi WNW 17.3 mph 24.2 mph N/A   Clear
9:15 PM 36.9 °F 27.5 °F 11.7 °F 35% 29.80 in 10.0 mi WNW 16.1 mph 26.5 mph N/A   Clear
9:35 PM 35.2 °F 24.4 °F 18.7 °F 51% 29.80 in 10.0 mi WNW 19.6 mph 33.4 mph N/A   Clear
9:55 PM 34.0 °F 24.2 °F 21.0 °F 59% 29.80 in 10.0 mi WNW 15.0 mph 23.0 mph N/A   Clear
10:15 PM 33.6 °F 22.6 °F 22.6 °F 64% 29.80 in 10.0 mi WNW 18.4 mph 24.2 mph N/A Snow Light Snow
10:35 PM 31.1 °F 20.9 °F 29.1 °F 92% 29.79 in 4.0 mi WNW 13.8 mph 19.6 mph N/A Snow Light Snow
10:55 PM 31.3 °F 21.6 °F 29.5 °F 93% 29.80 in 5.0 mi WNW 12.7 mph - N/A Snow Light Snow
11:15 PM 30.2 °F 18.1 °F 30.0 °F 99% 29.81 in 0.2 mi West 18.4 mph 25.3 mph N/A Snow Heavy Snow
11:35 PM 29.5 °F 15.3 °F 28.9 °F 98% 29.80 in 0.8 mi WNW 25.3 mph 43.7 mph N/A Snow Snow
11:55 PM 27.1 °F 12.4 °F 25.7 °F 94% 29.81 in 1.2 mi WNW 24.2 mph 33.4 mph N/A Snow Light Snow